Dewpoint
-23 -22 -10 -4 3 7 8 6 2 2 -2 3 5 7 11 13 11 10 14 13 14 13 11 12 13 13 11 8 0 -9 -16 -17 -15 -14 -15 -16 -17 -17 -17 -17 -17 -15 -15 -15 -15 -15 -15 -15 -15
-22 -16 -3 0 2 5 8 5 5 3 1 5 6 7 9 14 14 14 13 13 13 13 13 13 14 10 10 6 -4 -19 -18 -15 -14 -15 -16 -17 -18 -17 -16 -16 -16 -16 -17 -17 -17 -17 -17 -16 -16
-10 -2 1 1 1 1 -0 2 4 2 3 5 8 9 12 14 13 14 14 14 14 12 13 14 12 11 9 2 -13 -19 -16 -15 -16 -16 -17 -17 -17 -16 -16 -17 -18 -19 -20 -20 -21 -20 -20 -19 -19
0 -0 -3 1 0 -3 -1 -1 -1 6 6 7 7 13 14 14 13 14 15 14 14 13 13 13 11 10 7 -4 -19 -16 -15 -16 -17 -17 -17 -16 -16 -17 -19 -19 -19 -19 -20 -20 -19 -19 -19 -19 -19
0 -1 1 -3 -3 -4 -6 -5 -4 0 5 6 8 13 14 14 13 14 15 14 13 13 14 12 11 9 3 -11 -18 -15 -15 -16 -17 -17 -16 -16 -18 -19 -18 -18 -18 -19 -18 -17 -17 -18 -19 -19 -19
1 -2 -1 1 -4 -7 -9 -11 -11 -8 -5 5 7 14 14 14 14 14 15 14 13 14 14 12 10 7 -2 -15 -17 -15 -16 -17 -16 -16 -16 -17 -18 -18 -17 -17 -17 -15 -13 -13 -14 -15 -17 -18 -20
1 1 1 -3 -5 -7 -8 -11 -11 -12 -9 -0 6 14 15 15 14 14 14 14 14 14 14 12 10 5 -6 -16 -16 -15 -16 -16 -15 -14 -16 -17 -17 -16 -16 -16 -14 -11 -10 -11 -12 -12 -14 -15 -16
1 2 1 -2 -3 -3 -7 -7 -8 -10 -11 -11 5 14 14 15 14 14 14 14 13 13 13 11 9 4 -7 -16 -15 -16 -16 -15 -14 -15 -16 -16 -15 -15 -15 -14 -11 -10 -10 -10 -11 -11 -12 -12 -13
1 4 4 1 -3 -5 -8 -2 -4 -4 -4 7 10 12 11 14 14 14 14 14 13 13 13 11 9 2 -8 -16 -16 -15 -15 -14 -14 -15 -15 -15 -14 -14 -14 -13 -11 -9 -10 -10 -10 -10 -11 -11 -11
2 4 2 -2 -2 -2 -2 -0 -1 -1 -1 2 14 12 13 14 14 14 14 13 13 12 12 11 8 3 -8 -15 -15 -15 -13 -13 -14 -14 -14 -13 -13 -13 -13 -12 -11 -10 -10 -10 -11 -10 -9 -9 -9
1 3 1 0 -1 -1 -1 -1 -1 -1 -0 -1 11 15 14 14 14 13 13 13 12 12 12 12 8 3 -8 -15 -15 -15 -11 -11 -13 -13 -12 -14 -13 -12 -12 -12 -12 -10 -10 -10 -10 -10 -9 -9 -8
4 1 0 -0 -1 -1 -1 -1 -1 -1 -1 -2 -2 11 14 14 14 13 13 12 12 11 11 11 8 5 -3 -13 -14 -14 -9 -10 -12 -13 -13 -12 -12 -13 -12 -12 -11 -9 -9 -10 -10 -9 -8 -8 -7
3 2 2 1 0 -1 -1 -1 -1 -1 -3 -4 -4 7 11 13 13 13 13 12 12 11 11 10 7 5 -1 -10 -12 -12 -8 -8 -11 -11 -12 -12 -12 -12 -12 -11 -11 -8 -9 -10 -9 -9 -8 -8 -8
3 3 3 2 1 0 0 -1 -2 -2 -3 -4 -5 -2 4 12 13 12 13 12 12 12 11 11 7 5 -0 -6 -8 -11 -7 -6 -9 -11 -12 -11 -11 -11 -11 -11 -10 -8 -9 -9 -9 -8 -8 -8 -7
4 5 3 2 2 1 -0 1 0 -2 -2 -4 -5 -6 -3 4 12 12 12 12 12 12 11 11 9 5 -2 -7 -6 -9 -8 -4 -8 -10 -11 -11 -11 -10 -10 -10 -8 -8 -9 -9 -9 -8 -8 -8 -8
4 3 5 2 1 0 0 3 -0 -1 -2 -4 -5 -8 -7 4 7 12 12 12 12 12 11 11 9 4 -3 -7 -7 -8 -9 -6 -7 -9 -10 -10 -9 -9 -9 -9 -8 -7 -9 -8 -9 -8 -8 -9 -9
3 5 5 5 3 3 3 3 -0 -1 -1 -2 -4 -6 -9 -7 5 11 12 12 12 12 11 11 10 4 -3 -6 -7 -7 -8 -7 -7 -8 -8 -8 -8 -8 -8 -7 -7 -7 -8 -8 -9 -8 -9 -9 -11
5 4 4 4 3 2 3 2 1 1 -1 -3 -4 -5 -8 -10 -5 6 12 12 12 12 11 11 10 3 -3 -6 -7 -6 -7 -7 -7 -7 -7 -7 -6 -6 -6 -6 -6 -6 -8 -8 -8 -8 -9 -10 -12
4 5 4 0 -1 1 1 2 1 0 -0 -0 -2 -4 -7 -11 -12 2 7 12 12 12 12 11 9 2 -2 -4 -6 -6 -8 -7 -6 -6 -6 -5 -5 -5 -5 -5 -5 -5 -6 -7 -7 -8 -9 -10 -12
2 3 1 0 -1 1 2 3 1 1 0 0 -2 -3 -5 -8 -10 4 7 9 12 12 11 10 8 2 -2 -5 -7 -7 -7 -7 -5 -5 -4 -4 -4 -4 -4 -4 -4 -5 -6 -7 -7 -7 -10 -11 -12
2 2 2 3 2 1 2 3 2 0 -0 0 -1 -2 -4 -7 -5 4 6 7 11 11 10 9 8 3 -1 -3 -4 -4 -4 -4 -4 -3 -3 -2 -2 -2 -3 -3 -4 -5 -5 -6 -6 -6 -11 -12 -12
2 1 3 3 4 4 3 5 1 -1 -1 -1 -2 -3 -3 -7 -7 2 5 7 11 11 9 8 7 4 1 -0 -3 -4 -5 -5 -3 -2 -1 -1 -1 -2 -2 -3 -4 -5 -5 -5 -5 -6 -12 -13 -15
3 3 4 2 4 4 3 5 2 0 -0 -4 -2 -3 -3 -5 -8 2 6 6 10 11 8 8 7 4 1 -1 -3 -3 -3 -2 -1 -0 -0 -0 -0 -1 -2 -3 -5 -4 -5 -5 -4 -5 -12 -14 -17
3 4 3 4 5 6 3 4 3 0 -2 -4 -4 -4 -4 -6 -8 0 6 6 9 11 8 7 8 5 2 -0 -1 -1 -1 -0 0 0 0 1 -0 -1 -2 -5 -5 -4 -5 -4 -3 -7 -14 -17 -19
3 4 3 5 6 5 2 4 2 -1 -2 -2 -2 -3 -6 -7 -4 5 5 7 11 10 8 7 8 5 3 1 0 -0 -0 1 1 1 1 0 -1 -2 -5 -6 -5 -5 -4 -3 -4 -11 -15 -19 -20
4 4 4 5 7 6 3 3 -0 -3 -2 -2 -2 -1 -3 -8 -2 5 7 8 9 10 8 8 8 6 4 3 1 1 2 3 2 2 1 1 -2 -4 -5 -5 -5 -4 -3 -3 -7 -14 -17 -20 -19
4 5 2 5 4 5 3 2 -1 -2 -2 -1 -2 -2 5 -2 -0 6 8 9 9 9 8 8 8 6 5 3 3 5 6 5 3 3 2 -0 -4 -5 -5 -5 -5 -4 -3 -6 -14 -16 -19 -20 -18
3 2 5 5 5 6 3 4 4 -1 -1 1 -1 2 7 7 5 6 6 9 10 10 8 8 8 7 6 4 4 4 4 4 3 2 1 -3 -5 -5 -4 -4 -4 -4 -7 -13 -16 -18 -19 -18 -17
5 6 5 6 5 5 5 2 -1 -2 1 2 0 3 7 8 5 6 7 10 10 9 9 8 8 8 6 5 5 4 4 3 2 1 -4 -5 -5 -4 -4 -5 -5 -9 -13 -15 -17 -18 -18 -17 -16
2 4 4 6 5 6 6 4 -4 -1 1 1 1 2 6 7 8 8 8 8 8 8 8 8 8 7 6 6 5 4 3 2 -0 -4 -5 -5 -5 -5 -5 -7 -10 -13 -14 -16 -17 -17 -17 -16 -15
Wind_Speed
8 5 3 4 2 3 4 8 5 11 6 4 8 9 9 5 3 4 20 22 20 24 27 24 21 18 13 9 7 6 6 6 5 6 5 5 5 5 5 5 4 4 5 5 5 5 5 4 4
5 1 3 1 4 3 6 6 11 15 8 14 11 6 5 3 13 20 26 19 18 24 28 25 22 16 13 10 8 7 7 7 6 6 6 6 5 5 5 5 5 5 6 5 5 5 5 5 5
2 2 2 4 4 8 8 5 11 6 15 8 7 7 4 8 15 29 22 23 21 25 27 25 20 17 13 10 9 9 8 7 6 6 6 5 5 6 6 6 7 7 7 7 7 7 7 7 6
8 3 5 3 10 7 7 3 8 2 1 6 13 8 9 5 25 24 27 24 23 25 26 24 19 16 13 11 10 9 9 8 7 6 6 6 6 6 7 8 8 8 8 8 9 9 9 9 9
2 3 2 4 7 6 6 15 22 2 3 6 12 6 8 12 17 24 31 26 21 26 25 22 19 16 14 12 11 10 10 9 7 6 6 6 7 7 8 8 8 8 9 9 10 10 10 9 9
4 2 2 7 6 6 8 26 21 3 13 15 7 11 8 17 18 26 28 25 21 27 24 23 20 17 14 13 12 11 11 9 8 7 7 7 8 8 9 9 9 10 11 11 11 12 12 11 11
1 1 4 4 5 6 5 19 9 12 12 16 12 8 16 23 21 29 28 26 25 24 24 24 21 18 15 14 13 13 11 10 8 7 8 8 8 9 9 9 10 10 11 11 12 11 11 11 11
6 1 4 3 3 6 13 21 19 18 22 27 19 8 10 31 31 29 29 27 26 22 22 24 21 18 17 16 14 13 11 10 8 8 9 9 9 10 9 9 9 10 10 10 11 11 10 10 10
7 2 2 4 3 4 21 9 16 22 11 5 3 9 10 37 35 34 31 29 26 23 24 24 22 19 17 16 15 13 12 10 10 9 9 10 10 10 9 9 9 9 9 9 10 10 10 10 9
4 2 4 3 9 9 17 12 17 14 19 8 12 8 15 37 37 38 37 35 31 28 25 24 23 20 18 17 16 15 13 12 11 10 9 11 11 9 8 8 7 7 8 8 8 9 9 9 9
4 5 7 17 24 18 14 15 20 14 4 18 3 14 31 36 35 35 34 33 31 28 24 23 24 21 19 19 18 16 14 13 12 10 9 9 8 7 7 7 6 6 7 7 8 8 7 7 7
5 15 17 20 26 18 10 20 18 7 13 23 22 8 24 30 32 36 36 35 33 29 26 23 22 21 19 20 18 16 14 14 13 10 9 9 8 6 6 6 5 6 6 6 6 6 6 6 6
6 7 15 17 19 23 19 14 9 22 30 24 18 5 14 23 26 34 34 34 32 31 28 27 25 22 20 19 19 16 13 13 12 11 10 9 7 6 5 4 4 4 4 4 4 5 5 5 5
12 17 17 16 22 24 11 11 17 23 28 33 25 12 10 18 25 30 33 35 34 31 31 30 29 25 21 19 18 16 15 13 12 11 9 9 7 5 4 3 3 3 3 3 3 4 4 5 5
12 6 12 16 15 10 18 12 16 34 26 33 34 27 17 17 21 29 35 37 35 33 31 31 31 28 23 21 19 18 16 14 13 11 10 8 7 5 4 3 2 2 2 3 4 4 4 5 5
5 3 4 6 10 9 14 17 7 19 25 24 32 31 28 18 23 26 29 36 35 34 32 31 31 30 26 24 21 19 17 15 13 12 10 8 7 5 4 3 1 1 1 2 3 3 4 4 4
4 4 7 8 9 7 11 9 9 24 23 24 29 30 34 28 24 27 30 34 38 37 33 30 32 31 28 25 23 20 18 17 13 11 10 8 7 6 4 2 1 1 1 2 2 2 3 4 5
3 8 8 9 5 11 14 19 12 24 19 24 30 30 34 35 27 28 29 33 39 36 36 29 32 32 30 27 24 22 20 18 15 12 10 8 7 6 4 3 2 2 1 1 2 1 2 3 5
6 6 12 9 9 13 15 18 17 23 26 24 26 28 25 39 35 31 31 32 38 34 36 31 34 33 32 30 28 25 23 20 16 13 10 8 8 6 5 5 4 3 2 1 0 1 2 2 3
5 10 15 8 8 7 10 16 16 19 23 27 26 29 30 25 35 33 32 29 38 37 37 32 34 36 33 30 26 22 21 18 14 12 10 9 8 7 6 6 5 4 4 3 1 1 2 1 2
9 5 8 10 12 7 10 16 13 14 22 29 33 31 32 29 21 33 34 34 37 39 38 35 36 37 33 29 26 23 22 19 18 15 13 11 9 7 7 7 6 5 5 4 3 2 2 2 2
10 3 4 5 10 5 6 7 12 9 12 13 30 31 31 31 23 30 38 37 40 40 40 37 36 36 33 29 28 26 23 22 17 13 12 10 8 7 7 7 7 6 6 5 4 3 3 3 3
6 3 5 4 8 9 5 4 8 6 14 13 11 27 31 33 25 29 38 37 39 40 43 39 35 36 34 31 26 22 20 16 15 14 12 9 8 7 8 7 7 7 6 6 5 4 4 4 4
3 5 13 9 3 4 6 6 6 3 0 7 1 16 29 33 23 32 34 35 38 39 43 39 35 37 34 30 26 23 21 20 18 15 11 9 7 8 8 7 8 8 6 5 5 5 5 5 5
6 2 3 2 1 4 4 6 10 14 9 4 6 6 23 30 23 29 28 33 36 40 41 38 35 37 33 30 28 23 21 17 14 11 10 9 8 8 8 7 7 7 5 6 6 6 6 6 5
1 2 1 3 2 4 2 4 4 5 7 9 11 12 12 30 26 27 29 32 34 38 40 38 37 35 33 31 28 26 20 18 13 12 9 9 6 9 7 6 6 5 5 6 6 6 6 6 6
3 4 5 3 3 2 3 4 4 8 9 12 16 17 7 26 26 26 27 34 30 33 39 39 36 35 34 31 29 24 21 17 15 12 10 8 7 7 6 5 5 5 5 5 6 6 6 7 7
5 3 2 2 3 4 5 1 3 9 8 10 10 13 11 14 18 18 23 27 29 32 37 36 35 32 31 29 25 23 23 19 12 12 10 9 7 7 6 5 4 4 4 5 6 6 7 7 9
3 3 4 2 2 2 3 4 4 4 5 7 6 9 14 11 15 17 18 21 25 28 31 36 33 30 29 28 26 23 19 14 15 12 11 9 8 7 6 3 3 3 4 4 5 6 8 9 11
4 6 4 2 3 2 2 5 4 1 3 4 5 8 14 15 17 17 18 19 20 22 24 27 27 28 29 27 23 19 17 16 15 12 10 8 8 6 3 2 2 2 3 4 5 7 9 11 14
Wind_Direction
309 298 244 158 80 85 230 238 250 285 309 108 85 97 115 38 110 179 157 169 176 172 170 171 168 172 166 167 160 151 142 132 124 116 104 93 88 83 77 71 62 55 47 39 34 30 27 24 26
325 272 186 208 135 189 249 204 254 253 239 116 103 88 84 102 117 139 159 191 188 179 168 168 173 167 167 167 162 153 145 137 128 118 105 94 83 77 72 72 68 57 50 49 45 38 30 32 38
327 121 209 154 194 205 228 195 230 304 204 148 114 93 92 144 152 154 184 176 179 176 170 170 173 163 167 167 164 154 146 139 132 118 105 96 83 75 78 77 69 61 54 50 43 38 36 36 41
354 146 246 190 228 252 221 226 241 63 183 137 140 95 107 182 159 173 168 173 184 177 173 176 165 166 168 167 164 156 147 144 136 125 113 100 90 86 83 77 73 65 55 51 49 45 42 43 47
342 258 259 236 238 267 270 277 280 255 256 211 158 143 106 140 173 166 165 177 180 170 176 173 168 169 170 168 165 159 151 148 140 128 115 107 100 96 90 83 76 68 61 57 54 54 53 54 57
312 244 249 241 255 285 280 276 274 270 276 213 145 120 142 168 178 175 174 175 181 174 178 172 171 172 172 170 167 161 157 150 140 130 119 111 104 98 91 84 78 70 64 60 59 59 58 59 63
167 33 244 296 315 310 270 292 309 291 256 264 181 118 145 165 177 169 177 182 179 183 182 176 174 174 173 172 169 165 158 150 142 132 123 117 110 102 94 86 78 73 69 66 64 64 65 64 67
302 110 305 322 11 295 305 319 310 318 293 273 208 162 166 178 176 174 177 180 184 185 190 181 178 177 177 175 170 165 157 150 143 137 131 126 117 106 98 89 82 77 73 69 66 63 62 65 69
294 336 330 299 229 273 313 356 331 337 326 36 79 155 208 175 172 172 177 182 184 186 191 185 181 180 181 176 169 164 160 154 149 145 142 132 120 114 104 93 85 79 71 67 66 62 60 64 66
165 176 247 258 308 318 312 340 332 354 329 24 72 120 157 169 173 176 181 183 185 187 189 187 184 184 182 175 170 167 162 158 153 152 146 136 126 121 111 99 87 79 74 65 67 69 68 66 64
234 229 263 285 297 317 317 323 339 352 322 25 37 140 161 169 178 182 184 188 188 186 187 184 187 184 181 177 173 170 165 159 158 158 147 135 131 132 120 105 90 76 66 57 55 53 56 60 64
301 282 275 278 290 310 309 312 319 311 275 308 328 240 174 173 183 186 188 187 186 190 187 183 187 183 176 177 175 172 172 164 160 159 148 146 149 143 119 93 78 64 57 54 53 50 48 53 54
284 300 328 312 311 299 299 296 285 288 286 303 318 246 212 187 191 193 195 193 191 190 186 183 186 191 184 180 177 173 174 170 166 165 158 156 153 141 121 106 80 64 59 49 47 50 55 55 56
304 317 306 303 297 291 297 290 298 277 286 290 292 292 253 225 202 200 201 199 199 196 190 191 191 196 190 184 181 175 177 181 171 172 165 159 161 149 134 119 91 71 57 42 38 49 54 51 55
305 309 310 283 278 280 273 278 255 272 284 284 284 279 273 243 218 207 207 206 202 204 199 199 195 198 191 188 186 181 181 189 177 176 174 166 161 157 153 132 101 66 43 37 36 42 45 49 54
277 272 284 304 317 283 214 252 272 279 280 281 278 274 268 244 232 218 210 210 204 210 208 204 198 197 192 190 190 187 184 191 184 177 176 172 167 169 176 154 134 72 22 32 34 47 52 53 43
338 291 306 310 360 21 348 298 285 286 267 273 283 272 264 255 238 225 212 208 204 211 211 209 202 196 194 191 189 188 188 194 189 182 182 178 176 185 196 180 188 251 326 28 30 37 54 53 38
282 302 288 283 301 317 294 287 294 295 294 268 275 283 258 250 238 229 218 208 202 213 213 214 205 196 194 192 187 186 188 192 194 188 186 182 187 199 209 219 229 255 311 351 11 25 35 42 49
239 242 263 278 285 293 287 283 280 281 290 283 274 271 264 243 239 227 220 204 203 210 207 210 201 194 192 192 190 188 190 190 193 192 187 193 197 204 220 235 240 252 278 299 275 342 1 44 46
280 287 286 285 261 267 279 278 276 272 262 265 273 268 261 248 230 215 217 204 206 207 207 206 200 193 194 197 195 193 193 189 196 192 192 204 213 214 225 239 249 263 276 282 274 290 304 357 22
284 251 277 284 320 261 267 279 259 263 256 251 256 265 266 254 229 211 209 204 207 207 208 203 200 195 196 195 191 186 192 191 194 193 197 205 214 220 231 241 248 251 269 277 277 274 260 292 334
280 268 283 325 343 306 43 291 293 286 273 238 240 233 247 243 242 222 205 202 203 205 204 201 201 196 196 195 192 197 199 195 193 192 196 207 219 223 232 239 247 247 261 270 266 272 261 275 299
239 33 308 306 290 310 253 237 272 301 292 296 224 217 230 236 233 218 205 206 201 205 203 200 200 197 196 196 196 197 197 192 188 193 196 202 219 223 228 233 244 253 255 260 266 275 272 280 277
10 345 297 269 233 246 240 189 283 262 165 319 9 223 221 226 217 217 207 205 200 202 201 197 200 197 196 196 194 195 191 191 194 193 197 207 221 227 223 221 238 246 250 255 268 274 274 278 276
39 323 321 353 218 257 346 170 259 295 321 343 327 317 231 223 203 196 201 200 193 195 196 196 202 197 193 195 192 191 194 198 198 198 205 218 212 225 221 225 231 243 250 258 270 268 273 276 277
279 300 285 302 303 283 351 248 295 357 350 12 357 337 232 211 195 188 196 201 199 197 195 200 200 194 193 194 189 188 193 196 200 212 214 224 213 215 217 218 226 236 252 265 267 271 275 278 285
177 226 207 248 256 301 248 305 291 360 356 354 354 353 71 189 188 183 193 195 202 203 197 200 196 194 194 191 192 196 216 215 203 207 212 222 209 216 214 219 229 246 256 262 268 275 281 287 294
175 324 22 283 285 294 298 148 248 335 336 337 348 14 68 138 168 184 198 193 193 198 198 198 197 194 193 189 193 195 194 198 203 216 214 206 204 219 219 215 226 245 258 271 278 283 290 297 297
164 230 207 242 225 243 308 273 223 288 312 323 355 57 81 117 154 176 188 173 185 193 201 196 193 193 188 189 192 202 198 198 204 204 193 195 200 202 205 204 220 249 268 276 282 291 296 298 298
176 203 185 201 295 260 244 272 249 245 349 40 30 79 103 105 118 130 133 147 162 169 180 189 190 184 186 185 188 198 195 191 191 186 183 184 186 183 171 194 233 264 281 290 295 298 297 298 301
Height
1517 1517 1517 1517 1529 1528 1527 1514 1499 1498 1494 1488 1488 1489 1495 1499 1500 1515 1508 1512 1516 1518 1521 1525 1527 1529 1532 1534 1534 1535 1536 1537 1538 1538 1538 1539 1539 1539 1539 1539 1539 1539 1539 1539 1539 1538 1538 1538 1537
1515 1515 1516 1516 1529 1535 1522 1500 1502 1490 1491 1486 1487 1492 1494 1502 1501 1503 1509 1512 1516 1518 1520 1523 1526 1528 1531 1533 1534 1535 1536 1537 1537 1538 1538 1539 1539 1539 1539 1539 1539 1539 1539 1539 1538 1538 1538 1538 1537
1514 1513 1515 1517 1523 1521 1512 1493 1492 1489 1489 1483 1486 1490 1495 1499 1501 1502 1505 1509 1514 1517 1520 1523 1525 1528 1530 1532 1533 1534 1535 1536 1537 1538 1538 1539 1539 1539 1539 1539 1539 1539 1539 1538 1538 1538 1537 1537 1537
1513 1515 1515 1517 1515 1502 1495 1489 1490 1489 1489 1485 1485 1491 1496 1498 1499 1501 1505 1509 1512 1516 1519 1522 1525 1527 1529 1531 1533 1534 1535 1536 1537 1538 1538 1539 1539 1539 1539 1540 1540 1539 1539 1539 1538 1537 1537 1537 1537
1514 1514 1518 1516 1508 1498 1492 1489 1490 1492 1490 1487 1486 1493 1496 1498 1501 1502 1505 1508 1511 1516 1518 1521 1524 1526 1528 1530 1532 1533 1535 1536 1537 1538 1538 1539 1539 1540 1540 1540 1540 1540 1540 1539 1538 1538 1538 1537 1537
1514 1512 1520 1516 1507 1498 1494 1489 1490 1492 1492 1486 1486 1490 1496 1497 1499 1501 1504 1508 1512 1514 1517 1520 1523 1525 1527 1529 1531 1533 1534 1536 1537 1538 1538 1539 1539 1540 1541 1541 1541 1541 1540 1539 1539 1538 1538 1537 1537
1514 1516 1517 1509 1509 1503 1497 1492 1490 1489 1488 1485 1481 1488 1494 1496 1497 1500 1504 1508 1511 1515 1517 1519 1521 1524 1526 1528 1530 1532 1534 1535 1537 1537 1538 1539 1539 1540 1541 1541 1541 1541 1541 1540 1540 1539 1539 1538 1537
1514 1514 1512 1511 1511 1509 1494 1492 1490 1489 1482 1480 1478 1481 1490 1489 1493 1498 1502 1506 1510 1513 1516 1518 1520 1523 1525 1527 1530 1532 1534 1535 1536 1537 1538 1538 1539 1540 1541 1541 1542 1542 1542 1541 1541 1540 1540 1539 1538
1514 1519 1520 1512 1506 1503 1498 1495 1488 1486 1483 1477 1475 1476 1477 1483 1489 1495 1500 1503 1507 1511 1514 1517 1519 1521 1524 1526 1529 1531 1533 1534 1535 1537 1537 1539 1539 1540 1541 1542 1543 1543 1543 1542 1541 1541 1540 1539 1539
1513 1520 1513 1507 1506 1505 1501 1499 1493 1490 1485 1484 1478 1476 1477 1483 1487 1489 1494 1497 1502 1507 1511 1515 1517 1520 1522 1525 1527 1530 1532 1533 1534 1536 1537 1538 1540 1540 1541 1542 1543 1543 1543 1543 1542 1541 1540 1539 1539
1511 1514 1509 1507 1503 1502 1499 1495 1495 1493 1486 1487 1485 1482 1480 1481 1487 1491 1494 1498 1500 1505 1509 1512 1515 1518 1521 1523 1526 1528 1531 1532 1533 1535 1536 1537 1539 1540 1541 1542 1542 1542 1543 1542 1542 1541 1540 1539 1539
1512 1508 1506 1504 1501 1499 1499 1495 1492 1492 1488 1487 1490 1485 1483 1484 1487 1490 1493 1496 1499 1502 1507 1510 1513 1516 1520 1522 1524 1527 1530 1531 1532 1533 1535 1537 1538 1540 1541 1541 1541 1542 1542 1542 1542 1541 1540 1539 1539
1510 1506 1504 1502 1499 1496 1495 1493 1492 1487 1483 1485 1487 1487 1485 1486 1487 1491 1494 1497 1500 1502 1505 1508 1511 1514 1518 1521 1523 1525 1529 1530 1531 1533 1535 1536 1537 1539 1540 1540 1541 1541 1542 1541 1541 1541 1540 1539 1539
1510 1506 1503 1500 1497 1494 1493 1491 1489 1481 1483 1479 1483 1486 1483 1482 1485 1489 1491 1495 1499 1501 1504 1508 1510 1513 1517 1519 1522 1524 1527 1530 1531 1532 1534 1536 1537 1538 1539 1540 1540 1541 1540 1540 1540 1540 1539 1539 1539
1509 1507 1501 1495 1494 1492 1491 1489 1483 1478 1482 1476 1475 1480 1483 1479 1481 1484 1488 1491 1496 1499 1503 1506 1509 1512 1515 1517 1521 1522 1525 1530 1530 1531 1533 1535 1536 1537 1538 1539 1539 1540 1540 1539 1539 1539 1539 1539 1538
1508 1505 1507 1495 1493 1487 1487 1481 1479 1479 1477 1475 1472 1472 1475 1478 1476 1479 1483 1487 1493 1495 1499 1504 1506 1509 1513 1515 1518 1521 1523 1527 1529 1531 1532 1534 1535 1536 1537 1538 1538 1538 1538 1538 1538 1538 1538 1538 1538
1511 1514 1507 1501 1495 1494 1495 1485 1479 1475 1474 1471 1468 1468 1468 1473 1475 1475 1479 1482 1488 1489 1495 1500 1503 1507 1510 1514 1516 1520 1522 1525 1528 1530 1531 1533 1534 1535 1535 1536 1536 1537 1537 1537 1537 1537 1537 1537 1537
1514 1511 1506 1505 1497 1492 1491 1484 1476 1472 1471 1468 1465 1463 1462 1465 1470 1471 1474 1479 1482 1486 1490 1496 1500 1504 1508 1511 1514 1518 1520 1523 1526 1528 1530 1532 1533 1533 1534 1535 1535 1535 1536 1536 1536 1536 1536 1536 1536
1508 1509 1503 1500 1496 1492 1487 1479 1474 1468 1465 1462 1460 1459 1458 1457 1462 1467 1470 1475 1478 1480 1486 1490 1495 1500 1504 1507 1509 1514 1517 1520 1524 1526 1528 1530 1531 1532 1533 1534 1534 1535 1535 1535 1535 1535 1535 1535 1535
1504 1502 1498 1495 1490 1490 1483 1473 1469 1463 1458 1457 1454 1451 1451 1452 1456 1461 1465 1470 1474 1475 1480 1486 1491 1495 1500 1505 1509 1512 1516 1518 1523 1524 1526 1527 1529 1530 1531 1532 1533 1534 1534 1534 1534 1534 1533 1534 1534
1504 1504 1502 1499 1489 1484 1480 1468 1460 1450 1449 1447 1445 1446 1446 1448 1450 1453 1459 1465 1468 1472 1475 1480 1486 1491 1497 1503 1507 1510 1514 1516 1519 1521 1524 1526 1527 1528 1529 1530 1531 1532 1532 1533 1533 1532 1532 1532 1533
1498 1495 1496 1493 1497 1490 1481 1474 1456 1449 1443 1438 1433 1435 1440 1443 1446 1448 1452 1458 1461 1467 1472 1477 1484 1489 1495 1500 1504 1507 1509 1511 1516 1520 1522 1524 1525 1526 1527 1529 1530 1530 1530 1531 1531 1531 1531 1531 1531
1497 1494 1496 1495 1498 1495 1480 1486 1450 1444 1439 1427 1420 1424 1432 1436 1440 1444 1449 1453 1456 1461 1468 1474 1481 1487 1492 1497 1502 1505 1509 1512 1515 1517 1519 1522 1523 1524 1524 1526 1527 1530 1528 1529 1530 1529 1530 1530 1530
1497 1497 1495 1492 1493 1487 1470 1474 1452 1443 1435 1428 1420 1424 1426 1430 1435 1439 1446 1451 1453 1458 1465 1470 1477 1483 1490 1495 1500 1504 1506 1510 1512 1514 1517 1519 1520 1521 1522 1521 1525 1527 1526 1527 1528 1528 1528 1528 1528
1502 1500 1503 1491 1486 1483 1467 1472 1448 1436 1434 1431 1427 1424 1423 1427 1431 1437 1443 1447 1451 1455 1462 1469 1474 1481 1488 1493 1498 1501 1505 1509 1511 1512 1515 1516 1515 1519 1521 1520 1522 1524 1525 1526 1527 1527 1527 1527 1527
1501 1500 1503 1503 1479 1473 1466 1467 1452 1440 1435 1431 1428 1423 1417 1422 1428 1434 1438 1443 1449 1455 1459 1465 1472 1479 1486 1492 1495 1500 1505 1509 1509 1511 1511 1516 1513 1518 1518 1519 1520 1522 1523 1524 1525 1525 1525 1525 1525
1498 1497 1488 1492 1485 1485 1471 1454 1443 1441 1436 1431 1426 1423 1418 1421 1426 1433 1436 1441 1447 1453 1457 1462 1469 1476 1483 1489 1494 1495 1495 1503 1507 1508 1509 1513 1513 1517 1516 1517 1518 1520 1522 1523 1524 1524 1524 1523 1523
1488 1487 1487 1490 1497 1474 1470 1457 1459 1449 1445 1438 1433 1428 1426 1426 1430 1433 1435 1440 1445 1451 1457 1463 1468 1475 1483 1489 1494 1497 1500 1503 1503 1509 1508 1511 1511 1515 1516 1515 1516 1519 1520 1521 1522 1522 1521 1521 1520
1486 1484 1486 1485 1484 1483 1479 1465 1451 1448 1446 1442 1438 1434 1433 1430 1432 1434 1436 1440 1445 1450 1455 1460 1468 1474 1482 1488 1492 1498 1498 1498 1505 1508 1507 1509 1511 1513 1515 1513 1515 1517 1518 1519 1520 1519 1518 1518 1517
1473 1477 1476 1481 1478 1476 1475 1469 1446 1445 1444 1442 1440 1439 1439 1438 1438 1439 1441 1443 1447 1451 1455 1461 1468 1474 1481 1486 1489 1495 1498 1501 1504 1505 1506 1508 1511 1512 1510 1513 1514 1516 1517 1517 1517 1516 1516 1515 1514